Location: Ladd Observatory
(41.8387°N, 71.3996°W)
Time: 01:50:11
(UTC-05:00)

ISS - Visible Passes

Search period start: 13 February 2016 00:00
Search period end: 23 February 2016 00:00
Orbit: 398 x 408 km, 51.6° (Epoch: 13 February)

Date Brightness Start Highest point End Pass type
(mag) Time Alt. Az. Time Alt. Az. Time Alt. Az.
13 Feb -1.1 17:41:18 10° NNW 17:43:16 15° N 17:45:13 10° NE visible
13 Feb -1.1 19:17:32 10° NW 19:18:51 19° NNW 19:18:51 19° NNW visible
14 Feb -1.8 18:24:53 10° NW 18:27:30 22° NNE 18:28:20 20° NE visible
15 Feb -2.3 19:08:12 10° NW 19:10:31 39° NNW 19:10:31 39° NNW visible
16 Feb -2.5 18:15:28 10° NW 18:18:29 34° NNE 18:20:07 20° ENE visible
16 Feb -0.2 19:51:57 10° WNW 19:52:46 15° W 19:52:46 15° W visible
17 Feb -3.1 18:58:53 10° WNW 19:02:06 63° SW 19:02:28 57° S visible
18 Feb -3.4 18:05:58 10° NW 18:09:12 67° NNE 18:12:17 11° ESE visible
18 Feb -0.4 19:43:29 10° W 19:44:56 14° SW 19:44:56 14° SW visible
19 Feb -1.3 18:49:44 10° WNW 18:52:31 26° SW 18:54:56 12° S visible
20 Feb -2.5 17:56:29 10° WNW 17:59:39 52° SW 18:02:48 10° SE visible
21 Feb -0.2 18:41:27 10° WSW 18:42:39 12° SW 18:43:51 10° SSW visible
